This is the latest recevied weather packets stored in our database for station/object PA3CPS. If no packets are shown the sender has not sent any weather packets the latest 1 day(s).
| Time | Temp. | Humidity | Pressure | Rain* | Wind** | Luminosity | Snow |
|---|---|---|---|---|---|---|---|
| 1778065115 | 11.11° C | 74% | 1008.6 hPa | 0 mm | - | 257 W/m² | - |
| 1778064512 | 11.11° C | 73% | 1008.6 hPa | 0 mm | - | 223 W/m² | - |
| 1778063612 | 11.11° C | 73% | 1008.4 hPa | 0 mm | - | 213 W/m² | - |
| 1778063311 | 11.11° C | 74% | 1008.3 hPa | 0 mm | - | 195 W/m² | - |
| 1778063012 | 11.11° C | 75% | 1008.4 hPa | 0 mm | - | 204 W/m² | - |
| 1778062112 | 11.11° C | 77% | 1008.3 hPa | 0 mm | - | 276 W/m² | - |
| 1778061812 | 11.11° C | 76% | 1008.2 hPa | 0 mm | - | 297 W/m² | - |
| 1778060912 | 11.11° C | 74% | 1008.2 hPa | 0 mm | - | 262 W/m² | - |
| 1778060611 | 11.11° C | 74% | 1008.1 hPa | 0 mm | - | 241 W/m² | - |
| 1778060312 | 11.11° C | 74% | 1008.2 hPa | 0 mm | - | 218 W/m² | - |
| 1778060011 | 11.11° C | 74% | 1008.1 hPa | 0 mm | - | 209 W/m² | - |
| 1778059713 | 11.11° C | 75% | 1008 hPa | 0 mm | - | 206 W/m² | - |
| 1778059413 | 11.11° C | 76% | 1008.2 hPa | 0 mm | - | 211 W/m² | - |
| 1778059112 | 11.11° C | 77% | 1008.1 hPa | 0 mm | - | 230 W/m² | - |
| 1778058811 | 11.11° C | 76% | 1008 hPa | 0 mm | - | 221 W/m² | - |
| 1778058212 | 10.56° C | 76% | 1008 hPa | 0 mm | - | 167 W/m² | - |
| 1778057311 | 10.56° C | 77% | 1007.6 hPa | 0 mm | - | 174 W/m² | - |
| 1778057012 | 10.56° C | 76% | 1007.7 hPa | 0 mm | - | 151 W/m² | - |
| 1778056412 | 10.56° C | 77% | 1007.7 hPa | 0 mm | - | 151 W/m² | - |
| 1778055512 | 10.56° C | 78% | 1007.7 hPa | 0 mm | - | 125 W/m² | - |
| 1778055211 | 10.56° C | 79% | 1007.6 hPa | 0 mm | - | 109 W/m² | - |
| 1778054612 | 10.56° C | 79% | 1007.6 hPa | 0 mm | - | 98 W/m² | - |
| 1778054314 | 10.56° C | 78% | 1007.6 hPa | 0 mm | - | 97 W/m² | - |
| 1778054012 | 10.56° C | 79% | 1007.6 hPa | 0 mm | - | 95 W/m² | - |
| 1778053411 | 10.56° C | 77% | 1007.5 hPa | 0 mm | - | 100 W/m² | - |
* Rain latest hour (hover to see other rain measurements)
** Current wind speed in m/s (hover to see current wind gust speed)